| time (UTC) | temp C | wind direction | speed KPH | gust KPH | rain 1hr cm | rain 24hr cm | rain mn cm | humidity % | barometer mb |
| 20260504081748 | 10 | 178 | 0.0 | 0.0 | 0.00 | 0.00 | 0.00 | 74 | 982.0 |
| 20260504081245 | 10 | 178 | 0.0 | 0.0 | 0.00 | 0.00 | 0.00 | 74 | 982.0 |
| 20260504080746 | 10 | 178 | 0.0 | 0.0 | 0.00 | 0.00 | 0.00 | 74 | 982.1 |
| 20260504080245 | 10 | 163 | 0.0 | 0.0 | 0.00 | 0.00 | 0.00 | 75 | 982.1 |
| 20260504070245 | 10 | 175 | 0.0 | 0.0 | 0.00 | 0.00 | 0.00 | 77 | 982.4 |
| 20260504050651 | 10 | 175 | 0.0 | 0.0 | 0.00 | 0.00 | 0.00 | 74 | 983.2 |
| 20260504050145 | 10 | 175 | 0.0 | 0.0 | 0.00 | 0.00 | 0.00 | 74 | 983.2 |
| 20260504045638 | 10 | 175 | 0.0 | 0.0 | 0.00 | 0.00 | 0.00 | 73 | 983.2 |
| 20260504045134 | 10 | 175 | 0.0 | 0.0 | 0.00 | 0.00 | 0.00 | 73 | 983.2 |
| 20260504045058 | 10 | 175 | 0.0 | 0.0 | 0.00 | 0.00 | 0.00 | 71 | 983.1 |
| 20260504044122 | 11 | 175 | 0.0 | 0.0 | 0.00 | 0.00 | 0.00 | 71 | 983.2 |
| 20260504043615 | 11 | 175 | 0.0 | 0.0 | 0.00 | 0.00 | 0.00 | 70 | 983.3 |
| 20260504043541 | 11 | 175 | 0.0 | 0.0 | 0.00 | 0.00 | 0.00 | 70 | 983.2 |
| 20260504042603 | 11 | 175 | 0.0 | 0.0 | 0.00 | 0.00 | 0.00 | 69 | 983.3 |
| 20260504042058 | 11 | 175 | 0.0 | 0.0 | 0.00 | 0.00 | 0.00 | 69 | 983.2 |
| 20260504041551 | 11 | 175 | 0.0 | 0.0 | 0.00 | 0.00 | 0.00 | 67 | 983.3 |
| 20260504041046 | 12 | 175 | 0.0 | 0.0 | 0.00 | 0.00 | 0.00 | 67 | 983.3 |
| 20260504040541 | 12 | 175 | 0.0 | 0.0 | 0.00 | 0.00 | 0.00 | 66 | 983.3 |
| 20260504040036 | 12 | 175 | 0.0 | 0.0 | 0.00 | 0.00 | 0.00 | 65 | 983.3 |
| 20260504035530 | 12 | 175 | 0.0 | 0.0 | 0.00 | 0.00 | 0.00 | 66 | 983.2 |
| 20260504035448 | 12 | 175 | 0.0 | 0.0 | 0.00 | 0.00 | 0.00 | 65 | 983.3 |
| 20260504034517 | 12 | 178 | 0.0 | 0.0 | 0.00 | 0.00 | 0.00 | 65 | 983.3 |
| 20260504034012 | 12 | 168 | 0.0 | 0.0 | 0.00 | 0.00 | 0.00 | 65 | 983.4 |
| 20260504033508 | 12 | 168 | 0.0 | 0.0 | 0.00 | 0.00 | 0.00 | 65 | 983.4 |
| 20260504032959 | 12 | 168 | 0.0 | 0.0 | 0.00 | 0.00 | 0.00 | 65 | 983.4 |
| 20260504032454 | 12 | 169 | 0.0 | 0.0 | 0.00 | 0.00 | 0.00 | 65 | 983.4 |
| 20260504031948 | 12 | 169 | 0.0 | 0.0 | 0.00 | 0.00 | 0.00 | 64 | 983.4 |
| 20260504031442 | 12 | 169 | 0.0 | 0.0 | 0.00 | 0.00 | 0.00 | 64 | 983.4 |
| 20260504030936 | 12 | 169 | 0.0 | 0.0 | 0.00 | 0.00 | 0.00 | 64 | 983.5 |
| 20260504030906 | 12 | 169 | 0.0 | 0.0 | 0.00 | 0.00 | 0.00 | 65 | 983.6 |
| 20260504025924 | 12 | 161 | 0.0 | 0.0 | 0.00 | 0.00 | 0.00 | 65 | 983.5 |
| 20260504025850 | 12 | 158 | 0.0 | 0.0 | 0.00 | 0.00 | 0.00 | 66 | 983.5 |
| 20260504024912 | 12 | 158 | 0.0 | 0.0 | 0.00 | 0.00 | 0.00 | 67 | 983.5 |
| 20260504024405 | 12 | 217 | 0.0 | 0.0 | 0.00 | 0.00 | 0.00 | 67 | 983.6 |
| 20260504023900 | 12 | 217 | 0.0 | 0.0 | 0.00 | 0.00 | 0.00 | 68 | 983.6 |
| 20260504023354 | 12 | 138 | 0.0 | 0.0 | 0.00 | 0.00 | 0.00 | 67 | 983.6 |
| 20260504022848 | 12 | 213 | 0.0 | 0.0 | 0.00 | 0.00 | 0.00 | 67 | 983.6 |
| 20260504022341 | 12 | 213 | 0.0 | 0.0 | 0.00 | 0.00 | 0.00 | 67 | 983.4 |
| 20260504022245 | 12 | 213 | 0.0 | 0.0 | 0.00 | 0.00 | 0.00 | 64 | 983.5 |
| 20260504022032 | 12 | 213 | 0.0 | 0.0 | 0.00 | 0.00 | 0.00 | 65 | 983.5 |
| 20260504021221 | 12 | 213 | 0.0 | 0.0 | 0.00 | 0.00 | 0.00 | 64 | 983.3 |
| 20260504021210 | 12 | 213 | 0.0 | 0.0 | 0.00 | 0.00 | 0.00 | 65 | 983.4 |
| 20260504021010 | 12 | 213 | 0.0 | 0.0 | 0.00 | 0.00 | 0.00 | 64 | 983.5 |
| 20260504015305 | 13 | 213 | 0.0 | 0.0 | 0.00 | 0.00 | 0.00 | 63 | 983.2 |
| 20260504014800 | 13 | 213 | 0.0 | 0.0 | 0.00 | 0.00 | 0.00 | 64 | 983.1 |
| 20260504014254 | 13 | 213 | 0.0 | 0.0 | 0.00 | 0.00 | 0.00 | 63 | 983.1 |
| 20260504013748 | 13 | 213 | 0.0 | 0.0 | 0.00 | 0.00 | 0.00 | 65 | 983.0 |
| 20260504013241 | 13 | 213 | 0.0 | 0.0 | 0.00 | 0.00 | 0.00 | 64 | 983.1 |
| 20260504012735 | 13 | 213 | 0.0 | 0.0 | 0.00 | 0.00 | 0.00 | 61 | 983.2 |
| 20260504012230 | 14 | 213 | 0.0 | 0.0 | 0.00 | 0.00 | 0.00 | 60 | 983.1 |
| 20260504011725 | 14 | 213 | 0.0 | 0.0 | 0.00 | 0.00 | 0.00 | 60 | 983.0 |
| 20260504011219 | 14 | 213 | 0.0 | 0.0 | 0.00 | 0.00 | 0.00 | 60 | 983.0 |
| 20260504010712 | 15 | 213 | 0.0 | 0.0 | 0.00 | 0.00 | 0.00 | 59 | 983.1 |
| 20260504010638 | 15 | 213 | 0.0 | 0.0 | 0.00 | 0.00 | 0.00 | 58 | 983.0 |
| 20260504005701 | 15 | 213 | 0.0 | 0.0 | 0.00 | 0.00 | 0.00 | 58 | 982.9 |
| 20260504005153 | 15 | 213 | 0.0 | 0.0 | 0.00 | 0.00 | 0.00 | 58 | 982.8 |
| 20260504005121 | 15 | 213 | 0.0 | 0.0 | 0.00 | 0.00 | 0.00 | 58 | 982.7 |
| 20260504004142 | 16 | 213 | 0.0 | 0.0 | 0.00 | 0.00 | 0.00 | 57 | 982.7 |
| 20260504004107 | 16 | 213 | 0.0 | 0.0 | 0.00 | 0.00 | 0.00 | 55 | 982.7 |
| 20260504003131 | 16 | 213 | 0.0 | 0.0 | 0.00 | 0.00 | 0.00 | 55 | 982.8 |
| 20260504002624 | 16 | 213 | 0.0 | 0.0 | 0.00 | 0.00 | 0.00 | 54 | 982.7 |
| 20260504002117 | 17 | 213 | 0.0 | 0.0 | 0.00 | 0.00 | 0.00 | 53 | 982.8 |
| 20260504001612 | 17 | 213 | 0.0 | 0.0 | 0.00 | 0.00 | 0.00 | 53 | 982.8 |
| 20260504001107 | 17 | 213 | 0.0 | 0.0 | 0.00 | 0.00 | 0.00 | 51 | 982.8 |
| 20260504000601 | 17 | 213 | 0.0 | 0.0 | 0.00 | 0.00 | 0.00 | 51 | 982.8 |
| 20260504000054 | 17 | 213 | 0.0 | 0.0 | 0.00 | 0.00 | 0.00 | 51 | 982.8 |
| 20260503235547 | 17 | 213 | 0.0 | 0.0 | 0.00 | 0.00 | 0.00 | 51 | 982.8 |
| 20260503235517 | 18 | 213 | 0.0 | 0.0 | 0.00 | 0.00 | 0.00 | 50 | 982.9 |
| 20260503234923 | 18 | 223 | 0.0 | 0.0 | 0.00 | 0.00 | 0.00 | 50 | 983.1 |
| 20260503234919 | 18 | 213 | 0.0 | 0.0 | 0.00 | 0.00 | 0.00 | 51 | 983.1 |
| 20260503234719 | 18 | 213 | 0.0 | 0.0 | 0.00 | 0.00 | 0.00 | 50 | 983.0 |
| 20260503233018 | 18 | 223 | 0.0 | 0.0 | 0.00 | 0.00 | 0.00 | 48 | 983.1 |
| 20260503232946 | 18 | 223 | 0.0 | 0.0 | 0.00 | 0.00 | 0.00 | 48 | 983.2 |
| 20260503232007 | 18 | 177 | 0.0 | 0.0 | 0.00 | 0.00 | 0.00 | 48 | 983.2 |
| 20260503231936 | 18 | 177 | 0.0 | 0.0 | 0.00 | 0.00 | 0.00 | 47 | 983.3 |
| 20260503231006 | 18 | 200 | 0.0 | 0.0 | 0.00 | 0.00 | 0.00 | 47 | 983.3 |
| 20260503230944 | 18 | 275 | 0.0 | 0.0 | 0.00 | 0.00 | 0.00 | 45 | 983.3 |
| 20260503230010 | 18 | 275 | 0.0 | 0.0 | 0.00 | 0.00 | 0.00 | 45 | 983.4 |
| 20260503225503 | 19 | 325 | 0.0 | 0.0 | 0.00 | 0.00 | 0.00 | 43 | 983.4 |
| 20260503225005 | 19 | 266 | 0.0 | 0.0 | 0.00 | 0.00 | 0.00 | 42 | 983.5 |
| 20260503224930 | 19 | 266 | 0.0 | 0.0 | 0.00 | 0.00 | 0.00 | 43 | 983.5 |
| 20260503223959 | 19 | 266 | 0.0 | 0.0 | 0.00 | 0.00 | 0.00 | 43 | 983.4 |
| 20260503223459 | 19 | 186 | 0.0 | 0.0 | 0.00 | 0.00 | 0.00 | 44 | 983.5 |
| 20260503222957 | 19 | 232 | 0.0 | 0.0 | 0.00 | 0.00 | 0.00 | 45 | 983.5 |
| 20260503222458 | 19 | 209 | 0.0 | 0.0 | 0.00 | 0.00 | 0.00 | 44 | 983.5 |
| 20260503221958 | 19 | 213 | 0.0 | 0.0 | 0.00 | 0.00 | 0.00 | 44 | 983.6 |
| 20260503221455 | 19 | 258 | 0.0 | 0.0 | 0.00 | 0.00 | 0.00 | 43 | 983.6 |
| 20260503220955 | 20 | 258 | 0.0 | 0.0 | 0.00 | 0.00 | 0.00 | 42 | 983.6 |
| 20260503220453 | 20 | 234 | 0.0 | 0.0 | 0.00 | 0.00 | 0.00 | 43 | 983.6 |
| 20260503215955 | 20 | 295 | 0.0 | 0.0 | 0.00 | 0.00 | 0.00 | 43 | 983.6 |
| 20260503215455 | 20 | 253 | 0.0 | 0.0 | 0.00 | 0.00 | 0.00 | 42 | 983.6 |
| 20260503214955 | 20 | 254 | 0.0 | 0.0 | 0.00 | 0.00 | 0.00 | 42 | 983.6 |
| 20260503214925 | 20 | 251 | 0.0 | 0.0 | 0.00 | 0.00 | 0.00 | 42 | 983.7 |
| 20260503213955 | 20 | 273 | 0.0 | 0.0 | 0.00 | 0.00 | 0.00 | 40 | 983.8 |
| 20260503213455 | 20 | 245 | 0.0 | 0.0 | 0.00 | 0.00 | 0.00 | 43 | 983.9 |
| 20260503212954 | 20 | 200 | 0.0 | 0.0 | 0.00 | 0.00 | 0.00 | 41 | 984.0 |
| 20260503212456 | 19 | 264 | 0.0 | 0.0 | 0.00 | 0.00 | 0.00 | 42 | 984.0 |
| 20260503211955 | 19 | 123 | 0.0 | 0.0 | 0.00 | 0.00 | 0.00 | 45 | 984.0 |
| 20260503211455 | 19 | 291 | 0.0 | 0.0 | 0.00 | 0.00 | 0.00 | 43 | 984.0 |
| 20260503210953 | 18 | 205 | 0.0 | 0.0 | 0.00 | 0.00 | 0.00 | 44 | 984.1 |
| 20260503210455 | 18 | 335 | 0.0 | 0.0 | 0.00 | 0.00 | 0.00 | 41 | 984.1 |
| 20260503205956 | 19 | 329 | 0.0 | 0.0 | 0.00 | 0.00 | 0.00 | 41 | 984.1 |
| 20260503205453 | 19 | 224 | 0.0 | 0.0 | 0.00 | 0.00 | 0.00 | 43 | 984.2 |
| 20260503204954 | 19 | 309 | 0.0 | 0.0 | 0.00 | 0.00 | 0.00 | 42 | 984.2 |
| 20260503204454 | 19 | 240 | 0.0 | 0.0 | 0.00 | 0.00 | 0.00 | 42 | 984.4 |
| 20260503203954 | 19 | 227 | 0.0 | 1.6 | 0.00 | 0.00 | 0.00 | 44 | 984.4 |
| 20260503203455 | 19 | 211 | 0.0 | 1.6 | 0.00 | 0.00 | 0.00 | 44 | 984.6 |
| 20260503202948 | 18 | 329 | 0.0 | 0.0 | 0.00 | 0.00 | 0.00 | 43 | 984.7 |
| 20260503202445 | 19 | 313 | 0.0 | 0.0 | 0.00 | 0.00 | 0.00 | 40 | 984.8 |
| 20260503202400 | 20 | 268 | 0.0 | 0.0 | 0.00 | 0.00 | 0.00 | 39 | 985.0 |
| 20260503202148 | 19 | 250 | 0.0 | 0.0 | 0.00 | 0.00 | 0.00 | 42 | 984.8 |
| 20260503201650 | 19 | 261 | 0.0 | 0.0 | 0.00 | 0.00 | 0.00 | 43 | 984.9 |
| 20260503200445 | 19 | 301 | 0.0 | 0.0 | 0.00 | 0.00 | 0.00 | 40 | 985.1 |
| 20260503200422 | 19 | 303 | 0.0 | 0.0 | 0.00 | 0.00 | 0.00 | 42 | 985.1 |
| 20260503195446 | 19 | 254 | 0.0 | 0.0 | 0.00 | 0.00 | 0.00 | 40 | 985.4 |
| 20260503194947 | 19 | 260 | 0.0 | 0.0 | 0.00 | 0.00 | 0.00 | 42 | 985.4 |
| 20260503194445 | 19 | 263 | 0.0 | 0.0 | 0.00 | 0.00 | 0.00 | 39 | 985.5 |
| 20260503193943 | 19 | 268 | 0.0 | 0.0 | 0.00 | 0.00 | 0.00 | 44 | 985.6 |
| 20260503193446 | 20 | 258 | 0.0 | 0.0 | 0.00 | 0.00 | 0.00 | 37 | 985.7 |
| 20260503192940 | 20 | 265 | 0.0 | 0.0 | 0.00 | 0.00 | 0.00 | 40 | 985.7 |
| 20260503192433 | 20 | 258 | 0.0 | 0.0 | 0.00 | 0.00 | 0.00 | 39 | 985.8 |
| 20260503191928 | 20 | 176 | 0.0 | 0.0 | 0.00 | 0.00 | 0.00 | 42 | 985.9 |
| 20260503191422 | 20 | 183 | 0.0 | 0.0 | 0.00 | 0.00 | 0.00 | 41 | 986.0 |
| 20260503191346 | 19 | 250 | 0.0 | 0.0 | 0.00 | 0.00 | 0.00 | 42 | 986.1 |
| 20260503190834 | 18 | 234 | 0.0 | 0.0 | 0.00 | 0.00 | 0.00 | 43 | 986.1 |
| 20260503185904 | 18 | 144 | 0.0 | 0.0 | 0.00 | 0.00 | 0.00 | 46 | 986.1 |
| 20260503185830 | 18 | 251 | 0.0 | 0.0 | 0.00 | 0.00 | 0.00 | 46 | 986.2 |
| 20260503184851 | 18 | 321 | 0.0 | 0.0 | 0.00 | 0.00 | 0.00 | 42 | 986.2 |
| 20260503184822 | 18 | 323 | 0.0 | 0.0 | 0.00 | 0.00 | 0.00 | 45 | 986.3 |
| 20260503183834 | 18 | 258 | 0.0 | 0.0 | 0.00 | 0.00 | 0.00 | 46 | 986.3 |
| 20260503183328 | 18 | 306 | 0.0 | 0.0 | 0.00 | 0.00 | 0.00 | 43 | 986.5 |
| 20260503182823 | 18 | 263 | 0.0 | 0.0 | 0.00 | 0.00 | 0.00 | 44 | 986.6 |
| 20260503182315 | 18 | 218 | 0.0 | 0.0 | 0.00 | 0.00 | 0.00 | 45 | 986.6 |
| 20260503181810 | 18 | 231 | 0.0 | 0.0 | 0.00 | 0.00 | 0.00 | 43 | 986.6 |
| 20260503181738 | 18 | 210 | 0.0 | 0.0 | 0.00 | 0.00 | 0.00 | 45 | 986.6 |
| 20260503181230 | 17 | 123 | 0.0 | 0.0 | 0.00 | 0.00 | 0.00 | 44 | 986.6 |
| 20260503180253 | 17 | 325 | 0.0 | 0.0 | 0.00 | 0.00 | 0.00 | 45 | 986.6 |
| 20260503180221 | 17 | 242 | 0.0 | 0.0 | 0.00 | 0.00 | 0.00 | 49 | 986.7 |
| 20260503175242 | 17 | 11 | 0.0 | 0.0 | 0.00 | 0.00 | 0.00 | 46 | 986.8 |
| 20260503174735 | 17 | 127 | 0.0 | 0.0 | 0.00 | 0.00 | 0.00 | 45 | 986.9 |
| 20260503174227 | 17 | 198 | 0.0 | 0.0 | 0.00 | 0.00 | 0.00 | 48 | 987.0 |
| 20260503174157 | 17 | 135 | 0.0 | 0.0 | 0.00 | 0.00 | 0.00 | 45 | 987.0 |
| 20260503173651 | 17 | 169 | 0.0 | 0.0 | 0.00 | 0.00 | 0.00 | 46 | 987.1 |
| 20260503172709 | 17 | 348 | 0.0 | 0.0 | 0.00 | 0.00 | 0.00 | 44 | 987.2 |
| 20260503172204 | 17 | 235 | 0.0 | 0.0 | 0.00 | 0.00 | 0.00 | 48 | 987.3 |
| 20260503171658 | 17 | 154 | 0.0 | 0.0 | 0.00 | 0.00 | 0.00 | 46 | 987.4 |
| 20260503171151 | 17 | 200 | 0.0 | 0.0 | 0.00 | 0.00 | 0.00 | 46 | 987.4 |
| 20260503170646 | 17 | 154 | 0.0 | 0.0 | 0.00 | 0.00 | 0.00 | 50 | 987.4 |
| 20260503170141 | 17 | 211 | 0.0 | 0.0 | 0.00 | 0.00 | 0.00 | 52 | 987.5 |
| 20260503150422 | 13 | 70 | 0.0 | 0.0 | 0.00 | 0.00 | 0.00 | 57 | 988.1 |
| 20260503140310 | 12 | 51 | 0.0 | 0.0 | 0.00 | 0.00 | 0.00 | 72 | 987.9 |
| 20260503131235 | 10 | 9 | 0.0 | 0.0 | 0.00 | 0.00 | 0.00 | 86 | 987.8 |
| 20260503130739 | 10 | 5 | 0.0 | 0.0 | 0.00 | 0.00 | 0.00 | 87 | 987.8 |
| 20260503130233 | 10 | 30 | 0.0 | 0.0 | 0.00 | 0.00 | 0.00 | 88 | 987.8 |
| 20260503110722 | 4 | 348 | 0.0 | 0.0 | 0.00 | 0.00 | 0.00 | 95 | 986.8 |
| 20260503110222 | 4 | 348 | 0.0 | 0.0 | 0.00 | 0.00 | 0.00 | 95 | 986.8 |
| 20260503100205 | 5 | 348 | 0.0 | 0.0 | 0.00 | 0.00 | 0.00 | 94 | 986.4 |